Location: Krakow
(50.0212°N, 19.9423°E)
Time: 14:18:56
(UTC+02:00)

NOAA 18 - Pass Details

Date: 30 April 2025
Orbit: 837 x 857 km, 98.8° (Epoch: 14 May)

Event Time Altitude Azimuth Distance (km) Brightness Sun altitude
Exits shadow 22:26:21 34° 145° (SE) 1,384 5.7 -18.8°
Maximum altitude 22:28:48 70° 71° (ENE) 913 5.3 -19.0°
Drops below altitude 10° 22:34:20 10° 349° (NNW) 2,503 8.7 -19.5°
Sets 22:36:43 0° 347° (NNW) 3,443 9.7 -19.7°
